GW1228 Weather Reports


Display with metric or nautical units.
time (UTC)temp
F
wind
direction
speed
MPH
gust
MPH
rain 1hr
in
rain 24hr
in
rain mn
in
humidity
%
barometer
mb
20260505003057 74 0 0.0 1.0 0.00 0.00 0.00 54 1008.7
20260505001550 75 0 0.0 2.0 0.00 0.00 0.00 51 1008.5
20260505000056 76 0 0.0 6.0 0.00 0.00 0.00 50 1008.7
20260504234551 76 0 1.0 5.0 0.00 0.00 0.00 48 1008.7
20260504233050 77 227 1.0 5.0 0.00 0.00 0.00 47 1009.0
20260504231553 77 219 1.0 3.0 0.00 0.00 0.00 48 1009.5
20260504230052 77 221 0.0 4.0 0.00 0.00 0.00 46 1009.6
20260504224547 77 171 2.0 5.0 0.00 0.00 0.00 45 1009.7
20260504223104 78 205 2.0 9.0 0.00 0.00 0.00 45 1009.7
20260504221548 78 144 1.0 6.0 0.00 0.00 0.00 45 1009.8
20260504220051 78 221 1.0 9.0 0.00 0.00 0.00 46 1009.9
20260504214552 78 221 2.0 9.0 0.00 0.00 0.00 44 1010.1
20260504213047 78 147 2.0 10.0 0.00 0.00 0.00 46 1010.2
20260504211633 78 213 2.0 7.0 0.00 0.00 0.00 45 1010.4
20260504210054 78 215 1.0 9.0 0.00 0.00 0.00 45 1010.6
20260504204550 78 114 2.0 8.0 0.00 0.00 0.00 44 1010.9
20260504203057 78 126 1.0 7.0 0.00 0.00 0.00 45 1011.3
20260504201557 78 0 1.0 6.0 0.00 0.00 0.00 44 1011.5
20260504200053 79 0 1.0 11.0 0.00 0.00 0.00 43 1011.7
20260504194551 78 238 3.0 10.0 0.00 0.00 0.00 42 1011.9
20260504193051 79 190 1.0 6.0 0.00 0.00 0.00 43 1012.1
20260504191606 78 234 1.0 7.0 0.00 0.00 0.00 44 1012.3
20260504190104 77 173 1.0 7.0 0.00 0.00 0.00 47 1012.6
20260504184554 77 255 1.0 7.0 0.00 0.00 0.00 46 1012.8
20260504183048 77 167 2.0 6.0 0.00 0.00 0.00 47 1013.0
20260504181559 76 135 1.0 8.0 0.00 0.00 0.00 47 1013.1
20260504180052 76 128 3.0 9.0 0.00 0.00 0.00 48 1013.2
20260504174553 75 195 1.0 7.0 0.00 0.00 0.00 48 1013.3
20260504173055 75 0 2.0 10.0 0.00 0.00 0.00 47 1013.6
20260504171554 75 0 2.0 10.0 0.00 0.00 0.00 50 1013.8
20260504081553 60 0 0.0 2.0 0.00 0.00 0.00 73 1014.4
20260504044550 63 205 0.0 2.0 0.00 0.00 0.00 68 1015.4
20260504043100 63 0 0.0 2.0 0.00 0.00 0.00 68 1015.5
20260504041549 63 0 0.0 1.0 0.00 0.00 0.00 68 1015.7
20260504040126 64 0 0.0 2.0 0.00 0.00 0.00 68 1015.8
20260504034550 64 0 0.0 1.0 0.00 0.00 0.00 67 1015.8
20260504033056 65 0 0.0 1.0 0.00 0.00 0.00 67 1015.9
20260504031556 65 0 0.0 3.0 0.00 0.00 0.00 65 1015.8
20260504030051 65 232 0.0 3.0 0.00 0.00 0.00 67 1015.8
20260504024551 65 0 0.0 1.0 0.00 0.00 0.00 67 1015.7
20260504023052 65 0 0.0 1.0 0.00 0.00 0.00 66 1015.7
20260504021552 66 0 0.0 1.0 0.00 0.00 0.00 67 1015.6
20260504014552 68 0 0.0 1.0 0.00 0.00 0.00 65 1015.3
20260504013051 70 0 0.0 0.0 0.00 0.00 0.00 62 1015.3
20260504011549 71 0 0.0 0.0 0.00 0.00 0.00 59 1015.3
20260504010058 73 0 0.0 0.0 0.00 0.00 0.00 56 1015.1
20260504004553 74 0 0.0 0.0 0.00 0.00 0.00 52 1015.2